Regional Weather Roundup
Issued by NWS State College, PA

Home | Current Version | Previous Version | Text Only | Print | Product List | Glossary Off
Versions: 1 2 3 4 5 6 7 8 9 10 11 12 13 14 15 16 17 18 19 20 21 22 23 24 25 26 27 28 29 30 31 32 33 34 35 36 37 38 39 40 41 42 43 44 45 46 47 48 49 50

000
ASUS41 KCTP 262110
RWRCTP

REGIONAL WEATHER ROUNDUP
NATIONAL WEATHER SERVICE STATE COLLEGE PA
500 PM EDT TUE JUL 26 2016

Note: "fair" indicates few or no clouds below 12,000 feet with no
significant weather and/or obstructions to visibility.

* = STATION THAT DOES NOT REPORT PRECIPITATION /E.G. RAIN...SNOW...ETC/
    THUNDER OR FOG.

PAZ002>004-007>009-013>016-020>023-029>032-262200-
WESTERN PENNSYLVANIA

CITY           SKY/WX    TMP DP  RH WIND       PRES   REMARKS
ERIE           SUNNY     78  60  53 W6        30.02F
MEADVILLE      SUNNY     78  58  49 NW6       30.04F
FRANKLIN*      SUNNY     82  57  42 N7        30.05F
NEW CASTLE     FAIR      83  60  45 N6        30.02F
BEAVER COUNTY  NOT AVBL
BUTLER*        MOSUNNY   84  63  48 NW6       30.04F
PITTSBURGH INT PTSUNNY   86  60  41 VRB7      30.01S
PITTSBURGH     MOSUNNY   86  62  44 VRB7      30.00S
INDIANA*       SUNNY     86  59  39 NW6G13    30.04S
LATROBE        PTSUNNY   86  64  48 NW7       30.01S
WASHINGTON CO* PTSUNNY   88  64  45 W6        30.02S
$$

PAZ004>006-010>012-017>019-024>028-033>037-041-042-045-046-049>053-262200-
CENTRAL PENNSYLVANIA

CITY           SKY/WX    TMP DP  RH WIND       PRES   REMARKS
BRADFORD       SUNNY     79  57  46 W8        30.04F
DUBOIS         SUNNY     84  54  35 N8        30.02F
CLEARFIELD     SUNNY     88  54  31 W9        30.00F
JOHNSTOWN      MOSUNNY   83  57  41 W12G18    30.05F
ALTOONA        SUNNY     90  57  32 NW12      30.00F
STATE COLLEGE  MOSUNNY   88  57  35 NW7       29.96F
WILLIAMSPORT   SUNNY     94  51  23 VRB6      29.88F
SELINSGROVE    SUNNY     92  66  42 VRB3      29.90F
FT INDIANTOWN  MOSUNNY   91  63  38 VRB3      29.90F
CAPITAL CITY   MOSUNNY   94  59  31 N7        29.89F
HARRISBURG     PTSUNNY   91  75  59 SW5       29.88F HX 101
YORK           MOSUNNY   88  68  51 CALM      29.91F
$$

PAZ038>040-043-044-047-048-054-055-060>062-067>071-262200-
EASTERN PENNSYLVANIA

CITY           SKY/WX    TMP DP  RH WIND       PRES   REMARKS
SCRANTON       SUNNY     89  58  34 N17       29.93F
MOUNT POCONO   SUNNY     83  57  41 NW12      29.98F
ALLENTOWN      SUNNY     89  66  46 W10       29.90F
QUAKERTOWN*    CLOUDY    86  64  48 CALM      29.92F
READING        MOSUNNY   91  61  36 W10       29.89F
LANCASTER      MOSUNNY   89  66  46 W6        29.90F
COATESVILLE    MOCLDY    86  70  58 VRB6      29.94F
POTTSTOWN      MOSUNNY   89  66  46 NW9       29.91F
BLUE BELL      CLOUDY    86  66  51 NW3       29.89F
DOYLESTOWN     CLOUDY    89  60  37 NW8       29.89F
WILLOW GROVE   NOT AVBL
NORTH PHILA    CLOUDY    92  67  43 W13       29.90F HX  95
PHILADELPHIA   CLOUDY    91  66  43 W10       29.89F
$$




USA.gov is the U.S. government's official web portal to all federal, state and local government web resources and services.